Regional Weather Roundup
Issued by NWS Northern Indiana

Home | Current Version | Previous Version | Text Only | Print | Product List | Glossary Off
Versions: 1 2 3 4 5 6 7 8 9 10 11 12 13 14 15 16 17 18 19 20 21 22 23 24 25 26 27 28 29 30 31 32 33 34 35 36 37 38 39 40 41 42 43 44 45 46 47 48 49 50

000
ASUS43 KIWX 222010
RWRIWX

KIWX WEATHER ROUNDUP
NATIONAL WEATHER SERVICE NORTHERN INDIANA
300 PM EST MON JAN 22 2018

NOTE: "FAIR" INDICATES FEW OR NO CLOUDS BELOW 12,000 FEET WITH NO
SIGNIFICANT WEATHER AND/OR OBSTRUCTIONS TO VISIBILITY.

* THESE STATIONS ARE NOT UNDER NWS QUALITY CONTROL. THEY ALSO MAY NOT
  REPORT WEATHER SUCH AS PRECIPITATION OR FOG.

INZ001>027-222100-
NORTHERN INDIANA

CITY           SKY/WX    TMP DP  RH WIND       PRES   REMARKS
GARY*          CLOUDY    54  50  87 S17G31    29.50F
VALPARAISO     CLOUDY    53  49  86 S17G25    29.52F
MICHIGAN CITY* DRIZZLE   52  50  93 S16G25    29.51F
SOUTH BEND     CLOUDY    52  48  86 S18G28    29.53F
ELKHART*       CLOUDY    54  48  82 S12G17    29.54F
GOSHEN         CLOUDY    52  48  86 S20G26    29.55F
MONTICELLO*    CLOUDY    53  49  87 S14G21    29.53S
FORT WAYNE     CLOUDY    54  48  80 S21G31    29.59F
PERU/GRISSOM   CLOUDY    53  53 100 S23G31    29.54F

$$
INZ028>050-222100-
CENTRAL INDIANA

CITY           SKY/WX    TMP DP  RH WIND       PRES   REMARKS
LAFAYETTE      CLOUDY    53  48  83 S16G30    29.54F
MUNCIE*        CLOUDY    55  47  74 S18G35    29.61F
INDIANAPOLIS   CLOUDY    53  49  86 S21G29    29.59F

$$
MIZ043>046-050>051-056>058-064>065-071>073-077>080-222100-
SOUTHWEST LOWER MICHIGAN

CITY           SKY/WX    TMP DP  RH WIND       PRES   REMARKS
BATTLE CREEK   CLOUDY    53  48  83 S16       29.55F
BENTON HARBOR  CLOUDY    54  48  80 S13G20    29.51F
COLDWATER*     CLOUDY    53  50  91 S10G16    29.58F
HILLSDALE*     CLOUDY    50  46  87 S12G18    29.60F
HOLLAND        CLOUDY    50  47  89 S10       29.52F
GRAND RAPIDS   CLOUDY    42  41  96 E9        29.55F FOG
KALAMAZOO      CLOUDY    53  48  83 S15G24    29.55F
STURGIS*       CLOUDY    54  49  85 S16G23    29.56F
THREE RIVERS*  CLOUDY    53  48  84 S13G18    29.55F

$$
OHZ001>008-015>018-024>025-222100-
NORTHWEST OHIO

CITY           SKY/WX    TMP DP  RH WIND       PRES   REMARKS
WAUSEON*       FAIR      54  52  94 S18G29    29.64F
DEFIANCE       PTSUNNY   53  46  77 S13G28    29.63F
FINDLAY        CLOUDY    55  46  71 S23G32    29.67F
TOLEDO EXPRESS LGT RAIN  53  50  89 S15G28    29.65F
TOLEDO METCALF LGT RAIN  54  47  77 S26G39    29.67F
LIMA           CLOUDY    54  48  80 S21G31    29.65F

$$
AND FOR LAKE MICHIGAN COASTAL AND OPEN LAKE BUOY OBSERVATIONS

STATION/POSITION TEMP    WIND        PRES    VSBY  WAVE
                 AIR SEA DIR/SP/G                  HT/PER
                 (F)     (DEG/KT/KT) (MB)    (MI)  (FT/S)
CALUMET HARBOR    51     180/ 14/ 22  997.7F
MICHIGAN CITY     52     180/ 23/ 29   N/A
BURNS HARBOR      51     200/ 20/ 29  999.7F
SAINT JOSEPH      53     190/  5/ 14 1000.3

$$
&&




USA.gov is the U.S. government's official web portal to all federal, state and local government web resources and services.